Вернуться в каталог

STARLINK-37823

АктивенСвязьSSO
NORAD 69427·PAYLOAD·🇺🇸 United States

Запущен Jun 7, 2026 с Vandenberg Space Force Base

Loading…

Ближайшие Пролёты (ближайшие 24 часа)

TLE

СвежийSource: CelesTrak SupGP

Эпоха: Sep 14, 2026, 15:38 UTC

1 69427C 26126H   26257.65187500 -.00030215  00000+0 -93803-3 0  2574
2 69427  97.2846 118.9821 0002141  87.6536 103.0955 15.33450205    11

Отслеживайте STARLINK-37823 в реальном времени с AllMySat

Download on the App Store